period_start,C,m1,H,J0,J1,J2,J3,J4,J5,JA,JB,JC,JD,JJ,JK,JN,#
2017-05-24 00:01:58,0.05,0.33,0.00,25.70,28.58,31.31,14.25,47.77,1010.26,2024.11,3315.96,3001.31,3438.66,599.87,586.81,19.69,0000 0000 0000 0000 000000
2017-05-24 00:06:59,0.09,0.33,0.00,25.73,28.61,31.32,14.25,47.81,1010.16,2024.05,3314.11,2999.91,3437.05,600.10,586.83,19.74,0000 0000 0000 0000 000000
2017-05-24 00:12:01,0.09,0.33,0.00,25.75,28.63,31.35,14.21,47.89,1010.01,2024.01,3312.15,2998.51,3435.39,599.62,586.30,19.79,0000 0000 0000 0000 000000
2017-05-24 00:17:02,0.09,0.34,0.00,25.79,28.66,31.38,14.29,47.89,1009.91,2024.00,3310.24,2997.09,3433.71,600.09,586.69,19.84,0000 0000 0000 0000 000000
2017-05-24 00:22:03,0.09,0.34,0.00,25.82,28.68,31.43,14.21,47.88,1009.87,2024.00,3308.30,2995.75,3432.19,599.79,586.32,19.89,0000 0000 0000 0000 000000
2017-05-24 00:27:04,0.09,0.35,0.00,25.85,28.71,31.44,14.14,47.81,1009.82,2023.99,3306.43,2994.40,3430.66,599.61,586.03,19.94,0000 0000 0000 0000 000000
2017-05-24 00:32:05,0.08,0.35,0.00,25.89,28.74,31.46,14.14,47.85,1009.81,2023.99,3304.70,2993.06,3429.12,599.59,585.94,19.99,0000 0000 0000 0000 000000
2017-05-24 00:37:06,0.09,0.36,0.00,25.93,28.76,31.47,14.19,47.91,1009.84,2023.94,3302.78,2991.73,3427.57,599.79,586.06,20.04,0000 0000 0000 0000 000000
2017-05-24 00:42:08,0.05,0.36,0.00,25.95,28.80,31.50,14.20,47.86,1009.80,2023.55,3300.71,2990.25,3425.76,599.99,586.27,20.09,0000 0000 0000 0000 000000
2017-05-24 00:47:09,0.09,0.36,0.00,25.99,28.83,31.52,14.20,47.77,1009.82,2023.18,3297.82,2988.48,3423.77,600.12,586.39,20.14,0000 0000 0000 0000 000000
2017-05-24 00:52:10,0.06,0.37,0.00,26.04,28.86,31.59,14.18,47.76,1009.80,2023.04,3295.94,2987.18,3422.33,599.74,585.77,20.19,0000 0000 0000 0000 000000
2017-05-24 00:57:12,0.06,0.37,0.00,26.07,28.88,31.60,14.28,47.84,1009.79,2023.01,3294.50,2986.33,3421.39,600.45,586.44,20.24,0000 0000 0000 0000 000000
2017-05-24 01:02:13,0.10,0.38,0.00,26.11,28.91,31.63,14.22,47.76,1009.78,2023.01,3292.32,2984.86,3419.76,599.90,585.77,20.29,0000 0000 0000 0000 000000
2017-05-24 01:07:14,0.10,0.38,0.00,26.14,28.93,31.67,14.16,47.77,1009.78,2023.00,3290.16,2983.47,3418.07,599.82,585.76,20.34,0000 0000 0000 0000 000000
2017-05-24 01:12:15,0.10,0.39,0.00,26.17,28.96,31.72,14.20,47.74,1009.78,2022.99,3288.04,2981.87,3416.46,599.59,585.38,20.39,0000 0000 0000 0000 000000
2017-05-24 01:17:16,0.06,0.39,0.00,26.21,28.99,31.77,14.15,47.73,1009.78,2022.98,3286.44,2980.76,3415.17,599.83,585.53,20.44,0000 0000 0000 0000 000000
2017-05-24 01:22:18,0.04,0.39,0.00,26.22,29.01,31.78,14.17,47.82,1009.78,2022.94,3285.07,2979.85,3414.02,599.93,585.60,20.49,0000 0000 0000 0000 000000
2017-05-24 01:27:19,0.04,0.40,0.00,26.24,29.04,31.81,14.22,47.71,1009.77,2022.85,3283.90,2978.99,3413.06,600.20,585.73,20.54,0000 0000 0000 0000 000000
2017-05-24 01:32:20,0.02,0.40,0.00,26.28,29.07,31.82,14.23,47.72,1009.72,2022.43,3282.62,2978.09,3412.08,600.37,585.86,20.59,0000 0000 0000 0000 000000
2017-05-24 01:37:22,0.04,0.40,0.00,26.31,29.10,31.85,14.21,47.75,1009.52,2022.10,3281.24,2977.16,3410.98,600.02,585.43,20.64,0000 0000 0000 0000 000000
2017-05-24 01:42:23,0.06,0.40,0.00,26.34,29.13,31.91,14.21,47.74,1009.35,2022.03,3279.79,2976.14,3409.95,599.88,585.09,20.69,0000 0000 0000 0000 000000
2017-05-24 01:47:25,0.06,0.40,0.00,26.36,29.16,31.93,14.16,47.72,1009.40,2022.02,3278.53,2975.29,3408.81,600.08,585.35,20.74,0000 0000 0000 0000 000000
2017-05-24 01:52:26,0.06,0.41,0.00,26.41,29.19,31.96,14.21,47.79,1009.35,2022.00,3277.05,2974.19,3407.75,600.29,585.31,20.79,0000 0000 0000 0000 000000
2017-05-24 01:57:27,0.06,0.41,0.00,26.44,29.23,31.96,14.22,47.93,1009.32,2021.99,3275.77,2973.25,3406.75,600.36,585.30,20.84,0000 0000 0000 0000 000000
2017-05-24 02:02:29,0.04,0.41,0.00,26.47,29.26,32.00,14.16,47.88,1009.31,2021.98,3274.73,2972.51,3405.82,600.03,584.80,20.89,0000 0000 0000 0000 000000
2017-05-24 02:07:30,0.02,0.42,0.00,26.50,29.30,32.03,14.13,47.81,1009.30,2021.90,3273.80,2971.92,3405.03,600.02,584.89,20.94,0000 0000 0000 0000 000000
2017-05-24 02:12:32,0.02,0.42,0.00,26.54,29.34,32.07,14.08,47.94,1009.30,2021.62,3273.05,2971.16,3404.45,599.66,584.46,20.99,0000 0000 0000 0000 000000
2017-05-24 02:17:33,-0.01,0.42,0.00,26.59,29.37,32.08,14.06,47.79,1009.29,2021.36,3272.48,2970.96,3404.00,599.66,584.31,21.04,0000 0000 0000 0000 000000
2017-05-24 02:22:34,0.02,0.42,0.00,26.61,29.41,32.12,14.17,47.68,1009.29,2021.06,3271.84,2970.25,3403.33,600.13,584.75,21.09,0000 0000 0000 0000 000000
2017-05-24 02:27:36,0.03,0.42,0.00,26.65,29.44,32.15,14.17,47.74,1009.29,2021.02,3270.98,2969.73,3402.68,599.98,584.51,21.14,0000 0000 0000 0000 000000
2017-05-24 02:32:37,0.04,0.42,0.00,26.69,29.47,32.17,14.15,47.77,1009.29,2021.00,3269.92,2968.92,3401.75,599.93,584.41,21.19,0000 0000 0000 0000 000000
2017-05-24 02:37:38,0.07,0.42,0.00,26.72,29.51,32.21,14.09,47.67,1009.29,2020.99,3268.55,2967.91,3400.54,599.94,584.41,21.24,0000 0000 0000 0000 000000
2017-05-24 02:42:39,0.07,0.43,0.00,26.76,29.55,32.22,14.13,47.66,1009.29,2020.96,3266.97,2966.82,3399.34,599.97,584.36,21.29,0000 0000 0000 0000 000000
2017-05-24 02:47:41,0.04,0.43,0.00,26.80,29.59,32.25,14.11,47.77,1009.28,2020.77,3265.60,2965.84,3398.15,599.89,584.14,21.34,0000 0000 0000 0000 000000
2017-05-24 02:52:42,-0.01,0.43,0.00,26.84,29.62,32.31,14.19,47.77,1009.22,2020.19,3264.77,2965.04,3397.26,600.01,584.15,21.39,0000 0000 0000 0000 000000
2017-05-24 02:57:43,0.12,0.43,0.00,26.89,29.66,32.34,14.11,47.78,1009.19,2020.02,3262.78,2963.61,3395.71,599.77,583.67,21.44,0000 0000 0000 0000 000000
2017-05-24 03:02:44,0.31,0.45,0.00,26.94,29.70,32.39,14.07,47.73,1009.06,2020.00,3256.93,2959.29,3391.00,600.01,583.85,21.49,0000 0000 0000 0000 000000
2017-05-24 03:07:46,0.33,0.46,0.00,26.98,29.74,32.41,14.12,47.83,1008.95,2020.00,3250.32,2954.50,3385.86,600.03,583.67,21.54,0000 0000 0000 0000 000000
2017-05-24 03:12:47,0.20,0.48,0.00,27.03,29.76,32.45,14.04,47.73,1008.83,2019.97,3245.28,2950.88,3381.83,599.73,583.36,21.59,0000 0000 0000 0000 000000
2017-05-24 03:17:49,0.12,0.48,0.00,27.07,29.79,32.49,14.13,47.77,1008.80,2019.88,3242.32,2948.67,3379.45,600.22,583.64,21.64,0000 0000 0000 0000 000000
2017-05-24 03:22:50,0.01,0.49,0.00,27.13,29.83,32.52,14.09,47.75,1008.80,2019.33,3240.68,2947.49,3378.16,599.43,582.84,21.69,0000 0000 0000 0000 000000
2017-05-24 03:27:51,0.01,0.49,0.00,27.17,29.86,32.56,14.15,47.70,1008.80,2019.05,3239.83,2946.94,3377.18,600.04,583.24,21.74,0000 0000 0000 0000 000000
2017-05-24 03:32:53,0.03,0.49,0.00,27.22,29.89,32.61,14.04,47.66,1008.77,2019.01,3239.05,2946.18,3376.92,599.86,583.00,21.79,0000 0000 0000 0000 000000
2017-05-24 03:37:54,0.02,0.49,0.00,27.27,29.92,32.66,14.06,47.58,1008.76,2019.00,3238.55,2945.96,3376.14,599.58,582.62,21.84,0000 0000 0000 0000 000000
2017-05-24 03:42:55,0.02,0.49,0.00,27.31,29.95,32.70,14.12,47.52,1008.79,2019.00,3238.01,2945.37,3375.94,600.26,583.25,21.89,0000 0000 0000 0000 000000
2017-05-24 03:47:56,0.02,0.49,0.00,27.36,29.98,32.74,14.12,47.71,1008.68,2018.98,3237.82,2945.01,3375.26,599.96,582.76,21.94,0000 0000 0000 0000 000000
2017-05-24 03:52:57,-0.00,0.49,0.00,27.40,30.01,32.76,14.07,47.67,1008.51,2018.87,3237.07,2944.98,3375.00,599.98,582.61,21.99,0000 0000 0000 0000 000000
2017-05-24 03:57:59,-0.01,0.49,0.00,27.43,30.04,32.81,14.08,47.52,1008.37,2018.43,3236.80,2944.39,3374.57,600.06,582.55,22.05,0000 0000 0000 0000 000000
2017-05-24 04:03:00,-0.00,0.49,0.00,27.47,30.07,32.85,14.12,47.42,1008.32,2018.05,3236.08,2944.00,3374.02,599.81,582.20,22.10,0000 0000 0000 0000 000000
2017-05-24 04:08:02,-0.00,0.49,0.00,27.51,30.11,32.88,14.14,47.52,1008.32,2018.01,3235.99,2943.99,3373.93,600.24,582.48,22.14,0000 0000 0000 0000 000000
2017-05-24 04:13:03,0.04,0.49,0.00,27.56,30.14,32.91,14.11,47.74,1008.32,2018.00,3235.40,2943.49,3373.29,600.00,582.34,22.20,0000 0000 0000 0000 000000
2017-05-24 04:18:04,0.00,0.50,0.00,27.60,30.17,32.95,14.07,47.49,1008.32,2017.99,3235.02,2943.03,3373.00,599.89,581.98,22.25,0000 0000 0000 0000 000000
2017-05-24 04:23:05,0.01,0.50,0.00,27.63,30.20,32.98,14.11,47.58,1008.31,2017.98,3234.92,2942.98,3372.63,600.31,582.37,22.30,0000 0000 0000 0000 000000
2017-05-24 04:28:07,0.03,0.50,0.00,27.65,30.24,33.01,14.11,47.49,1008.28,2017.94,3234.14,2942.58,3372.06,600.44,582.34,22.35,0000 0000 0000 0000 000000
2017-05-24 04:33:08,-0.03,0.50,0.00,27.69,30.27,33.05,14.05,47.40,1008.26,2017.57,3233.98,2942.03,3371.98,600.22,582.06,22.40,0000 0000 0000 0000 000000
2017-05-24 04:38:09,-0.00,0.50,0.00,27.72,30.30,33.09,14.07,47.58,1008.12,2017.20,3233.54,2941.99,3371.44,600.19,581.85,22.45,0000 0000 0000 0000 000000
2017-05-24 04:43:10,0.01,0.50,0.00,27.74,30.33,33.13,14.05,47.54,1008.06,2017.03,3233.02,2941.59,3371.01,599.91,581.63,22.50,0000 0000 0000 0000 000000
2017-05-24 04:48:11,0.01,0.50,0.00,27.77,30.37,33.16,14.05,47.48,1008.01,2017.01,3232.80,2941.03,3370.83,599.93,581.60,22.55,0000 0000 0000 0000 000000
2017-05-24 04:53:12,0.02,0.50,0.00,27.81,30.40,33.20,14.07,47.58,1007.93,2017.00,3232.11,2940.98,3370.11,600.22,581.66,22.60,0000 0000 0000 0000 000000
2017-05-24 04:58:13,0.01,0.50,0.00,27.83,30.43,33.23,14.06,47.44,1007.92,2017.00,3231.99,2940.67,3369.99,600.01,581.43,22.65,0000 0000 0000 0000 000000
2017-05-24 05:03:15,0.03,0.50,0.00,27.86,30.46,33.27,14.10,47.54,1007.90,2016.99,3231.57,2940.11,3369.60,600.04,581.39,22.70,0000 0000 0000 0000 000000
2017-05-24 05:08:16,0.01,0.50,0.00,27.88,30.50,33.30,14.13,47.50,1007.94,2016.95,3231.02,2940.00,3369.02,600.21,581.57,22.75,0000 0000 0000 0000 000000
2017-05-24 05:13:18,-0.02,0.50,0.00,27.90,30.53,33.33,14.06,47.45,1008.21,2016.54,3230.66,2939.65,3368.83,600.11,581.65,22.80,0000 0000 0000 0000 000000
2017-05-24 05:18:19,-0.00,0.50,0.00,27.93,30.56,33.38,14.08,47.46,1008.31,2016.17,3230.04,2939.05,3368.15,599.55,581.17,22.85,0000 0000 0000 0000 000000
2017-05-24 05:23:20,-0.01,0.50,0.00,27.96,30.59,33.41,14.06,47.53,1008.26,2016.02,3229.94,2938.99,3368.00,600.00,581.34,22.90,0000 0000 0000 0000 000000
2017-05-24 05:28:21,0.04,0.50,0.00,27.98,30.63,33.43,14.10,47.48,1007.90,2016.00,3229.20,2938.55,3367.42,599.90,581.08,22.95,0000 0000 0000 0000 000000
2017-05-24 05:33:23,0.01,0.50,0.00,27.99,30.66,33.46,13.97,47.37,1007.85,2016.00,3228.98,2938.02,3367.01,599.65,580.85,23.00,0000 0000 0000 0000 000000
2017-05-24 05:38:24,0.01,0.50,0.00,28.02,30.69,33.49,14.02,47.57,1007.83,2016.00,3228.44,2937.98,3366.80,600.09,581.15,23.05,0000 0000 0000 0000 000000
2017-05-24 05:43:26,0.03,0.50,0.00,28.05,30.71,33.54,14.11,47.61,1007.74,2015.98,3228.01,2937.53,3366.16,599.97,580.89,23.10,0000 0000 0000 0000 000000
2017-05-24 05:48:27,0.00,0.51,0.00,28.08,30.75,33.57,14.00,47.37,1007.48,2015.96,3227.94,2937.06,3366.00,599.60,580.32,23.15,0000 0000 0000 0000 000000
2017-05-24 05:53:28,-0.00,0.51,0.00,28.10,30.78,33.58,14.08,47.52,1007.34,2015.76,3227.14,2936.98,3365.63,600.17,580.79,23.20,0000 0000 0000 0000 000000
2017-05-24 05:58:29,-0.02,0.50,0.00,28.12,30.81,33.62,14.00,47.42,1007.34,2015.17,3226.96,2936.57,3365.02,600.03,580.61,23.25,0000 0000 0000 0000 000000
2017-05-24 06:03:31,0.02,0.50,0.00,28.15,30.84,33.64,14.05,47.54,1007.34,2015.07,3226.22,2936.02,3364.97,600.07,580.56,23.30,0000 0000 0000 0000 000000
2017-05-24 06:08:32,0.01,0.51,0.00,28.19,30.87,33.68,14.04,47.33,1007.35,2015.00,3225.98,2935.96,3364.23,599.73,580.07,23.35,0000 0000 0000 0000 000000
2017-05-24 06:13:33,0.03,0.51,0.00,28.21,30.90,33.69,14.06,47.43,1007.34,2015.00,3225.33,2935.35,3363.99,599.95,580.43,23.40,0000 0000 0000 0000 000000
2017-05-24 06:18:34,0.01,0.51,0.00,28.23,30.93,33.72,14.04,47.36,1007.34,2014.98,3225.00,2935.01,3363.54,600.01,580.34,23.45,0000 0000 0000 0000 000000
2017-05-24 06:23:36,0.00,0.51,0.00,28.25,30.96,33.72,14.13,47.52,1007.34,2014.96,3224.82,2934.96,3363.04,599.85,580.12,23.50,0000 0000 0000 0000 000000
2017-05-24 06:28:37,0.02,0.51,0.00,28.28,30.99,33.78,14.09,47.58,1007.34,2014.88,3224.16,2934.50,3362.99,599.95,580.23,23.55,0000 0000 0000 0000 000000
2017-05-24 06:33:39,-0.01,0.51,0.00,28.30,31.01,33.80,14.09,47.48,1007.34,2014.59,3224.00,2934.03,3362.53,600.03,580.32,23.60,0000 0000 0000 0000 000000
2017-05-24 06:38:40,-0.02,0.51,0.00,28.31,31.04,33.82,14.08,47.44,1007.25,2014.11,3223.40,2933.95,3362.01,600.08,580.21,23.65,0000 0000 0000 0000 000000
2017-05-24 06:43:41,0.03,0.51,0.00,28.34,31.07,33.86,14.09,47.50,1007.09,2014.02,3223.00,2933.35,3361.75,600.20,580.19,23.70,0000 0000 0000 0000 000000
2017-05-24 06:48:42,0.02,0.51,0.00,28.36,31.10,33.89,14.04,47.37,1006.92,2014.00,3222.64,2933.01,3361.10,599.81,579.80,23.75,0000 0000 0000 0000 000000
2017-05-24 06:53:44,0.01,0.51,0.00,28.38,31.12,33.91,14.05,47.50,1006.88,2014.00,3222.02,2932.90,3360.96,600.03,579.91,23.80,0000 0000 0000 0000 000000
2017-05-24 06:58:45,0.05,0.51,0.00,28.40,31.15,33.92,14.05,47.42,1006.85,2013.99,3221.34,2932.15,3360.23,599.96,579.69,23.85,0000 0000 0000 0000 000000
2017-05-24 07:03:47,-0.00,0.51,0.00,28.42,31.18,33.95,14.01,47.51,1006.85,2013.98,3220.93,2932.00,3359.97,599.82,579.45,23.90,0000 0000 0000 0000 000000
2017-05-24 07:08:48,0.04,0.51,0.00,28.45,31.20,33.97,14.01,47.48,1006.85,2013.96,3220.21,2931.59,3359.33,599.75,579.42,23.95,0000 0000 0000 0000 000000
2017-05-24 07:13:50,-0.01,0.52,0.00,28.49,31.23,33.99,14.02,47.41,1006.86,2013.79,3219.95,2931.03,3359.00,600.17,579.78,24.00,0000 0000 0000 0000 000000
2017-05-24 07:18:51,-0.00,0.52,0.00,28.52,31.25,34.02,13.99,47.45,1006.87,2013.43,3219.21,2930.91,3358.61,600.10,579.61,24.05,0000 0000 0000 0000 000000
2017-05-24 07:23:52,0.01,0.52,0.00,28.54,31.28,34.04,14.06,47.45,1006.87,2013.15,3218.86,2930.27,3358.02,600.02,579.56,24.10,0000 0000 0000 0000 000000
2017-05-24 07:28:53,0.01,0.52,0.00,28.58,31.31,34.08,13.96,47.38,1006.86,2013.03,3218.08,2929.99,3357.76,599.65,579.04,24.15,0000 0000 0000 0000 000000
2017-05-24 07:33:55,0.02,0.52,0.00,28.61,31.33,34.10,14.05,47.42,1006.85,2013.01,3217.87,2929.80,3357.06,600.07,579.47,24.20,0000 0000 0000 0000 000000
2017-05-24 07:38:56,0.03,0.52,0.00,28.64,31.36,34.13,14.02,47.46,1006.85,2013.00,3217.14,2929.11,3356.95,600.03,579.29,24.25,0000 0000 0000 0000 000000
2017-05-24 07:43:57,0.01,0.52,0.00,28.67,31.37,34.14,14.05,47.42,1006.85,2013.00,3216.91,2929.00,3356.34,600.00,579.23,24.30,0000 0000 0000 0000 000000
2017-05-24 07:48:59,0.03,0.52,0.00,28.67,31.40,34.15,14.06,47.51,1006.85,2013.00,3216.14,2928.62,3356.00,600.05,579.30,24.35,0000 0000 0000 0000 000000
2017-05-24 07:54:00,0.03,0.52,0.00,28.69,31.42,34.19,13.97,47.27,1006.85,2012.99,3215.66,2928.03,3355.50,599.80,578.97,24.40,0000 0000 0000 0000 000000
2017-05-24 07:59:02,0.01,0.52,0.00,28.72,31.45,34.20,14.04,47.42,1006.85,2012.96,3215.02,2927.98,3355.02,600.24,579.38,24.45,0000 0000 0000 0000 000000
2017-05-24 08:04:03,0.02,0.52,0.00,28.73,31.47,34.23,14.11,47.33,1006.85,2012.95,3214.77,2927.62,3354.96,600.28,579.46,24.50,0000 0000 0000 0000 000000
2017-05-24 08:09:04,0.02,0.53,0.00,28.74,31.49,34.27,14.07,47.13,1006.85,2012.83,3214.06,2927.05,3354.24,599.89,579.05,24.55,0000 0000 0000 0000 000000
2017-05-24 08:14:05,-0.03,0.53,0.00,28.74,31.51,34.28,14.03,47.26,1006.85,2012.54,3213.88,2926.98,3353.99,599.99,579.01,24.60,0000 0000 0000 0000 000000
2017-05-24 08:19:06,0.02,0.52,0.00,28.74,31.54,34.31,14.03,47.13,1006.85,2012.14,3213.11,2926.35,3353.57,599.99,579.01,24.65,0000 0000 0000 0000 000000
2017-05-24 08:24:07,0.00,0.53,0.00,28.75,31.56,34.33,14.07,47.23,1006.79,2012.05,3212.98,2926.01,3353.04,600.08,579.07,24.70,0000 0000 0000 0000 000000
2017-05-24 08:29:09,0.01,0.53,0.00,28.75,31.57,34.34,14.05,47.27,1006.74,2012.01,3212.37,2925.99,3352.95,600.17,579.21,24.75,0000 0000 0000 0000 000000
2017-05-24 08:34:11,0.03,0.53,0.00,28.75,31.60,34.36,13.95,47.30,1006.82,2012.00,3211.98,2925.44,3352.26,599.77,578.82,24.80,0000 0000 0000 0000 000000
2017-05-24 08:39:12,0.02,0.53,0.00,28.74,31.61,34.37,13.96,47.17,1006.51,2012.00,3211.40,2925.03,3352.00,599.89,578.75,24.85,0000 0000 0000 0000 000000
2017-05-24 08:44:13,0.00,0.53,0.00,28.74,31.63,34.38,14.03,47.19,1006.47,2012.00,3211.01,2925.00,3351.97,599.98,578.76,24.90,0000 0000 0000 0000 000000
2017-05-24 08:49:14,0.01,0.53,0.00,28.74,31.65,34.37,14.13,47.27,1006.39,2012.00,3210.86,2924.91,3351.41,600.06,578.93,24.95,0000 0000 0000 0000 000000
2017-05-24 08:54:16,0.04,0.53,0.00,28.74,31.66,34.43,14.01,47.27,1006.37,2011.99,3210.12,2924.20,3351.01,599.96,578.76,25.00,0000 0000 0000 0000 000000
2017-05-24 08:59:17,0.00,0.53,0.00,28.72,31.67,34.44,13.96,47.14,1006.37,2011.99,3209.97,2924.01,3350.92,599.77,578.67,25.05,0000 0000 0000 0000 000000
2017-05-24 09:04:18,0.03,0.53,0.00,28.71,31.69,34.41,14.05,47.17,1006.38,2011.97,3209.33,2923.97,3350.21,600.30,579.17,25.10,0000 0000 0000 0000 000000
2017-05-24 09:09:20,0.01,0.53,0.00,28.72,31.70,34.39,14.01,47.23,1006.36,2011.96,3209.00,2923.68,3350.00,600.18,578.99,25.15,0000 0000 0000 0000 000000
2017-05-24 09:14:21,0.01,0.53,0.00,28.70,31.70,34.42,14.04,47.15,1006.36,2011.93,3208.72,2923.05,3349.95,600.26,579.06,25.20,0000 0000 0000 0000 000000
2017-05-24 09:19:22,0.01,0.54,0.00,28.68,31.72,34.45,14.06,47.30,1006.36,2011.85,3208.06,2923.00,3349.32,599.91,578.84,25.25,0000 0000 0000 0000 000000
2017-05-24 09:24:24,-0.03,0.53,0.00,28.67,31.72,34.42,14.02,47.20,1006.36,2011.58,3207.95,2922.95,3349.00,599.63,578.74,25.30,0000 0000 0000 0000 000000
2017-05-24 09:29:25,0.04,0.54,0.00,28.66,31.72,34.42,14.04,47.20,1006.24,2011.54,3207.32,2922.47,3348.95,600.00,578.82,25.35,0000 0000 0000 0000 000000
2017-05-24 09:34:26,-0.01,0.54,0.00,28.64,31.74,34.40,14.13,47.19,1005.97,2011.27,3207.00,2922.02,3348.37,600.27,579.00,25.40,0000 0000 0000 0000 000000
2017-05-24 09:39:27,0.00,0.54,0.00,28.62,31.75,34.42,14.00,47.23,1005.89,2011.17,3206.70,2921.99,3348.02,600.25,578.95,25.45,0000 0000 0000 0000 000000
2017-05-24 09:44:29,0.01,0.54,0.00,28.62,31.75,34.45,14.04,47.18,1005.87,2011.17,3206.06,2921.95,3347.99,600.12,578.80,25.50,0000 0000 0000 0000 000000
2017-05-24 09:49:30,0.02,0.54,0.00,28.61,31.75,34.47,13.99,47.11,1005.87,2011.11,3205.94,2921.36,3347.54,599.67,578.46,25.55,0000 0000 0000 0000 000000
2017-05-24 09:54:31,0.02,0.54,0.00,28.60,31.75,34.46,14.04,47.29,1005.87,2011.10,3205.26,2921.03,3347.05,599.91,578.79,25.60,0000 0000 0000 0000 000000
2017-05-24 09:59:33,0.00,0.54,0.00,28.59,31.75,34.47,14.01,47.18,1005.82,2011.08,3205.00,2921.00,3346.99,599.92,578.70,25.65,0000 0000 0000 0000 000000
2017-05-24 10:04:34,0.01,0.54,0.00,28.60,31.75,34.44,14.00,47.11,1005.81,2011.12,3204.72,2920.96,3346.84,600.02,578.62,25.71,0000 0000 0000 0000 000000
2017-05-24 10:09:35,0.03,0.54,0.00,28.59,31.75,34.44,13.94,47.08,1005.66,2011.07,3204.04,2920.60,3346.19,599.80,578.53,25.76,0000 0000 0000 0000 000000
2017-05-24 10:14:36,0.02,0.54,0.00,28.56,31.75,34.45,13.98,47.10,1005.76,2011.08,3203.80,2920.03,3346.00,599.80,578.61,25.81,0000 0000 0000 0000 000000
2017-05-24 10:19:37,0.01,0.54,0.00,28.54,31.75,34.44,14.08,47.16,1005.66,2011.07,3203.08,2920.00,3345.74,600.42,579.13,25.86,0000 0000 0000 0000 000000
2017-05-24 10:24:39,0.01,0.54,0.00,28.51,31.75,34.45,13.99,47.19,1005.63,2011.05,3202.92,2919.91,3345.08,599.93,578.83,25.91,0000 0000 0000 0000 000000
2017-05-24 10:29:40,0.03,0.55,0.00,28.50,31.75,34.44,14.02,47.10,1005.72,2011.11,3202.23,2919.46,3345.00,599.93,578.87,25.96,0000 0000 0000 0000 000000
2017-05-24 10:34:42,0.01,0.55,0.00,28.47,31.74,34.42,13.94,47.12,1005.48,2011.08,3201.99,2919.04,3344.89,599.62,578.44,26.01,0000 0000 0000 0000 000000
2017-05-24 10:39:43,0.02,0.55,0.00,28.44,31.72,34.41,14.00,47.11,1005.55,2011.06,3201.62,2919.00,3344.38,600.08,578.87,26.06,0000 0000 0000 0000 000000
2017-05-24 10:44:44,0.02,0.55,0.00,28.42,31.72,34.40,14.06,47.13,1005.78,2011.16,3201.15,2919.00,3344.14,599.85,578.77,26.11,0000 0000 0000 0000 000000
2017-05-24 10:49:45,-0.01,0.55,0.00,28.39,31.72,34.41,14.04,47.10,1005.67,2011.15,3201.00,2918.95,3344.01,599.74,578.82,26.16,0000 0000 0000 0000 000000
2017-05-24 10:54:47,0.03,0.55,0.00,28.37,31.71,34.40,14.00,47.13,1005.45,2011.36,3201.00,2918.91,3344.00,599.91,578.91,26.21,0000 0000 0000 0000 000000
2017-05-24 10:59:48,-0.00,0.55,0.00,28.35,31.70,34.39,14.01,47.08,1005.41,2011.30,3200.95,2918.76,3344.00,600.05,579.05,26.26,0000 0000 0000 0000 000000
2017-05-24 11:04:49,0.02,0.55,0.00,28.32,31.69,34.39,14.12,47.19,1005.39,2011.31,3200.68,2918.40,3343.99,600.20,579.25,26.31,0000 0000 0000 0000 000000
2017-05-24 11:09:50,0.04,0.55,0.00,28.31,31.67,34.43,14.02,47.12,1005.40,2011.63,3200.38,2918.44,3343.98,599.87,578.92,26.36,0000 0000 0000 0000 000000
2017-05-24 11:14:52,0.02,0.55,0.00,28.27,31.67,34.44,14.05,47.13,1005.37,2011.73,3200.05,2918.20,3343.97,599.90,579.07,26.41,0000 0000 0000 0000 000000
2017-05-24 11:19:53,0.01,0.55,0.00,28.24,31.65,34.34,13.99,47.18,1005.27,2011.91,3200.03,2918.24,3343.98,599.82,578.96,26.46,0000 0000 0000 0000 000000
2017-05-24 11:24:54,0.00,0.55,0.00,28.22,31.64,34.31,14.05,47.08,1005.28,2011.96,3200.01,2918.27,3343.98,600.07,579.35,26.51,0000 0000 0000 0000 000000
2017-05-24 11:29:55,0.00,0.55,0.00,28.19,31.62,34.31,14.11,47.22,1005.21,2011.95,3200.00,2918.14,3343.96,600.14,579.32,26.56,0000 0000 0000 0000 000000
2017-05-24 11:34:56,0.00,0.55,0.00,28.17,31.60,34.33,14.11,47.21,1005.20,2011.97,3200.00,2918.17,3343.95,600.27,579.49,26.61,0000 0000 0000 0000 000000
2017-05-24 11:39:57,0.00,0.55,0.00,28.15,31.59,34.32,14.06,47.15,1005.01,2011.98,3200.00,2918.21,3343.95,600.23,579.34,26.66,0000 0000 0000 0000 000000
2017-05-24 11:44:58,0.00,0.55,0.00,28.12,31.57,34.33,14.02,47.21,1004.91,2011.99,3200.00,2918.17,3343.97,600.03,579.15,26.71,0000 0000 0000 0000 000000
2017-05-24 11:50:00,0.00,0.55,0.00,28.11,31.55,34.34,14.13,47.10,1004.90,2011.99,3199.97,2918.11,3343.93,600.32,579.48,26.76,0000 0000 0000 0000 000000
2017-05-24 11:55:01,0.00,0.55,0.00,28.09,31.54,34.32,14.06,47.16,1004.90,2011.99,3199.88,2918.06,3343.92,600.02,579.20,26.81,0000 0000 0000 0000 000000
2017-05-24 12:00:02,0.00,0.55,0.00,28.05,31.52,34.30,13.98,46.98,1004.82,2012.00,3199.83,2918.17,3343.96,599.78,578.99,26.86,0000 0000 0000 0000 000000
2017-05-24 12:05:03,0.01,0.55,0.00,28.02,31.50,34.30,14.04,47.17,1004.85,2012.04,3199.61,2918.30,3343.98,599.72,579.05,26.91,0000 0000 0000 0000 000000
2017-05-24 12:10:05,0.01,0.56,0.00,28.00,31.48,34.29,14.02,47.25,1004.90,2012.07,3199.09,2918.13,3343.96,599.65,579.04,26.96,0000 0000 0000 0000 000000
2017-05-24 12:15:06,0.02,0.56,0.00,27.98,31.46,34.25,14.07,47.27,1004.90,2012.28,3199.04,2918.10,3343.99,599.91,579.46,27.01,0000 0000 0000 0000 000000
2017-05-24 12:20:07,0.02,0.56,0.00,27.95,31.45,34.21,14.06,47.19,1004.77,2012.50,3199.00,2918.08,3343.97,600.23,579.58,27.06,0000 0000 0000 0000 000000
2017-05-24 12:25:09,0.03,0.56,0.00,27.92,31.42,34.25,14.09,47.33,1004.77,2012.84,3199.00,2918.12,3343.97,600.02,579.48,27.11,0000 0000 0000 0000 000000
2017-05-24 12:30:10,0.00,0.56,0.00,27.89,31.40,34.24,14.09,47.28,1004.75,2012.90,3199.00,2918.06,3343.95,600.04,579.55,27.16,0000 0000 0000 0000 000000
2017-05-24 12:35:11,0.00,0.56,0.00,27.86,31.38,34.26,14.06,47.24,1004.56,2012.98,3199.00,2918.12,3343.99,600.14,579.54,27.21,0000 0000 0000 0000 000000
2017-05-24 12:40:12,0.00,0.56,0.00,27.83,31.37,34.22,14.04,47.15,1004.42,2012.99,3199.00,2918.14,3343.97,600.38,579.71,27.26,0000 0000 0000 0000 000000
2017-05-24 12:45:14,0.00,0.56,0.00,27.81,31.35,34.21,14.05,47.18,1004.41,2012.99,3198.97,2918.19,3343.98,599.99,579.46,27.31,0000 0000 0000 0000 000000
2017-05-24 12:50:15,0.00,0.56,0.00,27.77,31.33,34.18,14.10,47.33,1004.40,2012.99,3198.91,2918.14,3343.98,599.99,579.52,27.36,0000 0000 0000 0000 000000
2017-05-24 12:55:16,0.00,0.56,0.00,27.74,31.30,34.24,14.10,47.33,1004.28,2013.00,3198.79,2918.22,3343.99,600.07,579.73,27.41,0000 0000 0000 0000 000000